Regional Weather Roundup
Issued by NWS

Home | Current Version | Previous Version | Text Only | Print | Product List | Glossary Off
Versions: 1 2 3 4 5 6 7 8 9 10 11 12 13 14 15 16 17 18 19 20 21 22 23 24 25 26 27 28 29 30 31 32 33 34 35 36 37 38 39 40 41 42 43 44 45 46 47 48 49 50

000
ASUS43 KFSD 051602
RWRSD

WEATHER ROUNDUP FOR SOUTH DAKOTA
NATIONAL WEATHER SERVICE SIOUX FALLS SD
1000 AM CST THU MAR 05 2015

NOTE: "FAIR" INDICATES FEW OR NO CLOUDS BELOW 12,000 FEET WITH NO
SIGNIFICANT WEATHER AND/OR OBSTRUCTIONS TO VISIBILITY.


SDZ001>005-009-010-012>017-051700-
NORTHWEST AND NORTH CENTRAL SOUTH DAKOTA

CITY           SKY/WX    TMP DP  RH WIND       PRES   REMARKS
BUFFALO          N/A     26   9  48 W14       30.00S WCI  14
FAITH            N/A     17   4  56 S13       30.13F WCI   4
MOBRIDGE       SUNNY      9   0  67 S13       30.20F WCI  -7
$$

SDZ012>016-024>037-041>051-057-063-072>074-051700-
SOUTHWEST AND SOUTH CENTRAL SOUTH DAKOTA

CITY           SKY/WX    TMP DP  RH WIND       PRES   REMARKS
RAPID CTY ARPT MOSUNNY   18  10  71 SE3       30.13S
PIERRE         SUNNY      5   0  79 SE8       30.28F WCI  -8
CUSTER         MOSUNNY   26   1  34 W14       30.05R WCI  14
ELLSWORTH AFB  MOSUNNY   26   8  47 CALM      30.11S
PHILIP         SUNNY     11   3  70 CALM      30.23S
PINE RIDGE     MOSUNNY   18   5  57 SW8       30.20R WCI   8
SPEARFISH      FAIR      32   7  34 W16       30.10R WCI  21
WINNER         FAIR      16   3  56 S10       30.29S WCI   4
$$

SDZ004>011-016>023-039-040-051700-
NORTHEAST SOUTH DAKOTA

CITY           SKY/WX    TMP DP  RH WIND       PRES   REMARKS
ABERDEEN       SUNNY      2  -7  66 S13       30.36F WCI -15
WATERTOWN      SUNNY     -2 -10  69 S14       30.36S WCI -21
$$

SDZ017-020-022-023-036>040-048>070-051700-
SOUTHEAST SOUTH DAKOTA

CITY           SKY/WX    TMP DP  RH WIND       PRES   REMARKS
SIOUX FALLS    SUNNY      6  -3  66 S9        30.45F WCI  -8
HURON          SUNNY      7  -2  66 S13       30.40S WCI  -9
MITCHELL       SUNNY     11   1  64 S14       30.42F WCI  -5
YANKTON        SUNNY     12   3  67 SE6       30.48F WCI   3
$$

ABBREVIATIONS USED IN REMARKS
   TC - TEMPERATURE IN CELSIUS
  WCI - WIND CHILL INDEX
   HX - HEAT INDEX
  VSB - VISIBILITY




USA.gov is the U.S. government's official web portal to all federal, state and local government web resources and services.